Weather in Tossa de Mar

Spain     41°43′19″N   2°55′47″E
temp.,
°C
wind,
m/s
gust,
m/s
humid.,
%
clouds,
%
prec.,
mm/h
press.,
hPa
HPBL,
m
6 may, thu
thu623:00+14se228813 0.0 101818
02:00+13e019113 0.0 101711
05:00+13sw119155 0.0 101612
08:00+14wsw349283 0.0 1016135
11:00+18sw467121 0.0 1015575
14:00+18ssw79715 0.0 1014574
17:00+19sw7106943 0.0 1013439
20:00+17sw3379100 0.0 101444
7 may, fri
fri723:00+15wsw118798 0.0 101612
02:00+14w118833 0.0 101613
05:00+14n1187100 0.0 101511
08:00+15ne238410 0.0 101684
11:00+18e337011 0.0 1017567
14:00+18ese44706 0.0 1017532
17:00+18ese457033 0.0 1017549
20:00+16w118296 0.4 101861
8 may, sat
sat823:00+14wnw2287100 0.0 101923
02:00+13w2286100 0.0 101926
05:00+14sw338923 0.0 101856
08:00+15sw23855 0.0 101892
11:00+18ssw457547 0.0 1018447
14:00+19s46771 0.0 1016449
17:00+19s58795 0.0 1015372
20:00+17ssw5108779 0.0 1014289
9 may, sun
sun923:00+15ssw4692100 0.0 1014113
02:00+15s3394100 0.0 101354
05:00+15s1294100 0.0 101213
08:00+16e239399 0.0 1012128
11:00+18ene3579100 0.0 1011457
14:00+18ene458178 0.0 1010470
17:00+18e348585 0.1 1007350
20:00+17s23894 0.1 1006179
10 may, mon
mon1023:00+15ssw22942 0.0 100727
02:00+15wsw35967 0.0 100874
05:00+15ssw2395100 0.0 100750
08:00+15s5998100 1.1 1008450
11:00+16ssw81394100 5.0 1009680
14:00+17sw811815 7.1 1008702
17:00+18ssw89680 0.0 1008752
20:00+16ssw598999 0.0 1008400